[Date Prev][Date Next][Thread Prev][Thread Next] - [Date Index][Thread Index][Author Index]

2 Line ISS Keps 2-11



ISS
1 25544U 98067A   02042.18835505  .00071549  00000-0  83735-3 0   573
2 25544  51.6410 326.3368 0005859  61.7703  95.8670 15.60879874184374


----
Via the sarex mailing list at AMSAT.ORG courtesy of AMSAT-NA.
To unsubscribe, send "unsubscribe sarex" to Majordomo@amsat.org



AMSAT Top AMSAT Home